Vorticity
6 6 6 5 4 4 3 3 3 3 3 3 3 3 3 3 3 3 3 3 3 3 4 4 4 4 5 5 5 5 5 5 5 5 5 5 5 5 5 5 5 5 4 4 4 4 4 4 4 4 4 4 4 4 4 4 4 4 3 3 3 3 3 4 4 4 4 5 5 5 5 5 5 6 6 6 6 7 7 8 8 8 9 9 10 10 11 11 11 11 11 11 11 11 11 11 11 12 12 12 12 12 13
6 6 5 4 4 3 3 3 3 3 3 3 3 3 3 3 3 3 3 3 3 3 4 4 4 4 5 5 5 5 5 5 5 5 5 5 5 5 5 5 5 5 4 4 4 4 4 4 4 4 4 4 4 4 4 4 4 4 3 3 3 3 4 4 4 4 4 5 5 5 5 5 5 6 6 6 7 7 7 8 8 8 9 10 10 11 11 11 11 12 12 12 11 11 11 11 11 11 12 12 12 12 13
6 5 4 4 3 3 3 3 3 3 3 3 3 3 3 3 3 3 3 3 3 3 3 4 4 4 4 5 5 5 5 5 5 5 5 5 5 5 5 5 5 5 5 5 5 4 4 4 5 5 5 5 5 4 4 4 4 4 3 3 3 3 4 4 4 4 4 5 5 5 5 5 6 6 6 6 7 7 7 8 8 8 9 9 10 11 11 11 12 12 12 11 11 11 11 11 11 11 11 12 12 12 12
6 5 4 3 3 3 3 3 3 3 3 3 3 3 3 3 3 3 3 3 3 3 3 4 4 4 4 4 5 5 5 5 5 5 5 5 5 5 5 5 5 5 5 5 5 5 5 5 5 5 5 5 5 5 4 4 4 4 3 3 3 4 4 4 4 4 4 5 5 5 5 5 6 6 6 6 7 7 7 8 8 8 9 9 10 11 11 11 12 12 12 11 11 11 11 11 11 11 11 11 11 12 12
5 4 3 3 3 3 3 3 3 3 3 3 3 3 3 3 3 3 3 3 3 3 3 3 4 4 4 4 4 5 5 5 5 5 5 5 5 5 5 5 5 5 5 5 5 5 5 5 5 5 5 5 5 5 4 4 4 4 3 3 3 4 4 4 4 4 4 5 5 5 5 6 6 6 6 7 7 7 7 7 8 8 9 9 10 11 11 12 12 12 11 11 11 11 11 11 11 11 11 11 11 11 11
4 4 3 3 3 3 3 3 3 3 3 3 3 3 3 3 3 3 3 3 3 3 3 3 4 4 4 4 5 5 5 5 5 5 5 5 5 5 6 6 6 6 6 6 6 6 6 6 5 5 6 5 5 5 4 4 4 3 3 3 4 4 4 4 4 4 5 5 5 5 5 6 6 6 6 7 7 7 7 7 8 8 9 9 10 11 11 12 12 12 11 11 11 11 10 10 10 10 10 10 10 10 10
4 4 3 3 3 3 3 3 3 2 2 3 3 3 3 3 3 3 3 3 3 3 3 3 4 4 4 5 5 5 5 5 5 5 5 5 6 6 6 6 6 6 6 6 6 6 6 6 6 6 6 5 5 5 4 4 4 3 3 3 4 4 4 4 4 5 5 5 5 5 6 6 6 6 6 6 7 7 7 7 8 8 9 9 10 11 11 11 12 11 11 11 11 11 10 10 10 10 10 10 10 10 9
4 4 3 3 3 3 2 2 2 2 2 3 3 3 3 3 3 4 3 3 3 3 3 4 4 4 5 5 5 5 5 5 5 6 6 6 6 6 6 6 6 6 6 6 6 6 6 6 6 6 5 5 5 5 4 4 4 4 4 4 4 4 4 4 4 5 5 5 5 5 6 6 6 6 6 6 7 7 7 7 8 8 9 9 10 11 11 11 12 11 11 11 11 10 10 10 10 10 10 9 9 9 8
4 4 3 3 3 2 2 2 2 2 2 2 3 3 3 3 4 4 4 3 3 3 3 4 4 4 5 5 5 5 6 6 6 6 6 6 6 6 6 6 6 6 6 6 6 6 6 6 6 6 5 5 5 5 4 4 4 4 4 4 4 4 4 4 5 5 5 5 5 5 6 6 6 6 6 7 7 7 7 7 8 8 9 9 10 11 11 11 11 11 11 11 10 10 10 10 9 9 9 8 8 8 7
4 4 3 3 3 2 2 2 2 2 2 2 3 3 3 4 4 4 4 4 4 4 4 4 4 4 5 5 5 5 6 6 6 6 6 6 6 6 6 6 6 6 6 6 6 6 6 6 6 6 5 5 5 5 4 4 4 4 4 4 4 4 4 5 5 5 5 5 5 5 6 6 6 6 6 7 7 7 7 8 8 8 9 9 10 11 11 11 11 11 11 10 10 10 9 9 9 8 8 7 7 7 6
4 3 3 3 2 2 2 2 2 2 2 2 3 3 3 4 4 4 4 4 4 4 4 4 4 5 5 5 5 5 6 6 6 6 6 6 6 6 6 6 6 6 6 6 6 6 6 6 6 5 5 5 5 5 5 4 4 4 4 4 4 5 5 5 5 5 5 5 5 5 6 6 6 6 7 7 7 7 8 8 8 9 9 9 10 10 11 11 11 10 10 10 9 9 9 8 8 7 7 7 6 6 6
4 3 3 2 2 2 2 2 2 2 2 2 3 3 3 4 4 4 4 4 4 4 4 4 4 5 5 5 5 5 5 5 6 6 6 6 6 6 6 6 6 6 6 6 6 6 6 6 6 6 5 5 5 5 5 4 4 4 4 5 5 5 5 5 5 5 5 5 5 6 6 6 6 7 7 7 7 8 8 8 8 9 9 9 10 10 10 10 10 10 9 9 9 8 8 8 7 7 6 6 6 5 5
4 3 3 2 2 2 2 2 2 2 2 2 3 3 3 4 4 4 5 5 4 4 4 4 4 4 5 5 5 5 5 5 5 5 6 6 6 6 6 6 6 6 6 6 6 6 6 6 6 6 5 5 5 5 4 4 4 4 4 5 5 5 5 5 5 5 5 5 5 6 6 6 7 7 7 7 8 8 8 8 8 9 9 9 9 9 10 9 9 9 9 8 8 8 7 7 7 6 6 6 5 5 5
4 3 3 2 2 2 2 2 2 2 2 2 3 3 4 4 4 5 5 5 5 5 4 4 4 4 4 4 5 5 5 5 5 5 5 6 6 6 6 6 6 6 6 6 6 6 6 6 6 6 6 5 5 5 4 4 4 4 4 5 5 5 5 5 5 5 5 5 6 6 7 7 7 7 8 8 8 8 8 8 8 9 9 9 9 9 9 9 9 8 8 8 8 7 7 7 6 6 6 6 5 5 5
4 3 3 3 2 2 2 2 2 2 2 3 3 3 3 4 4 5 5 5 5 4 4 4 4 4 4 4 4 5 5 5 5 5 5 5 5 5 5 5 5 5 5 6 6 6 6 6 6 6 6 5 5 5 5 4 4 4 5 5 5 5 5 5 5 5 5 6 6 6 7 7 7 8 8 8 8 8 8 8 8 8 8 9 9 9 9 8 8 8 8 8 7 7 7 7 6 6 6 6 5 5 5
4 3 3 3 3 2 2 2 2 2 2 3 3 3 4 4 4 5 5 5 5 4 4 4 4 4 4 4 4 5 5 5 5 5 5 5 5 5 5 5 5 5 5 5 5 6 6 6 6 6 6 5 5 5 5 5 5 5 5 5 5 5 5 5 5 5 6 6 6 7 7 7 8 8 8 8 8 8 8 8 8 8 8 8 8 8 8 8 8 8 8 7 7 7 7 7 6 6 6 6 5 5 5
4 3 3 3 3 3 3 3 3 3 3 3 3 3 4 4 4 5 5 5 4 4 4 4 4 4 4 4 4 5 5 5 5 5 5 5 5 5 5 5 5 5 5 5 5 6 6 6 6 6 6 6 5 5 5 5 5 5 5 5 5 5 5 5 5 6 6 6 7 7 7 8 8 8 8 8 8 8 8 8 8 8 8 8 8 8 8 7 7 7 7 7 7 7 7 7 7 6 6 6 5 5 5
4 4 4 3 3 3 3 3 3 3 3 3 3 3 4 4 4 5 5 4 4 4 4 4 4 4 4 4 5 5 5 5 5 5 5 5 5 5 5 5 5 5 5 5 5 5 5 6 6 6 6 6 6 5 5 5 5 5 5 5 5 5 5 5 5 6 6 7 7 7 7 8 8 8 8 8 8 8 8 8 8 8 8 8 7 7 7 7 7 7 7 7 7 7 7 7 7 7 6 6 6 5 5
4 4 4 4 4 3 3 3 3 3 3 3 3 4 4 4 5 5 5 4 4 4 4 4 4 4 4 4 5 5 5 5 5 5 5 5 5 5 5 5 5 5 5 5 5 5 5 6 6 6 6 6 6 6 5 5 5 5 5 5 5 5 5 5 6 6 6 7 7 7 7 8 8 8 8 8 8 8 8 8 8 8 7 7 7 7 7 7 7 7 7 7 7 7 7 7 7 7 6 6 6 5 5
4 4 4 4 4 4 4 4 3 3 3 3 4 4 4 5 5 5 5 4 4 4 3 4 4 4 4 5 5 5 5 5 5 5 5 5 5 5 5 5 5 5 5 5 5 5 6 6 6 6 6 6 6 6 5 5 5 5 5 5 5 5 5 6 6 6 6 7 7 7 7 8 8 8 8 8 8 8 8 8 8 8 7 7 7 7 7 7 7 7 7 7 7 7 7 7 7 7 6 6 6 5 5
4 4 4 4 4 4 4 4 4 4 4 4 4 4 5 5 5 5 4 4 4 4 3 3 4 4 4 5 5 5 5 5 5 5 5 5 5 5 5 5 5 5 5 5 5 5 6 6 6 6 6 6 6 6 5 5 5 5 5 5 5 5 6 6 6 6 6 7 7 7 8 8 8 8 8 8 8 8 8 8 8 8 7 7 7 7 7 7 7 7 7 7 7 7 7 7 7 6 6 6 5 5 5
4 4 4 4 4 4 4 4 4 4 4 4 4 4 5 5 5 5 4 4 4 3 3 3 4 4 4 5 5 5 5 5 5 5 5 5 5 5 5 5 5 5 5 5 5 6 6 6 6 6 6 6 6 6 5 5 5 5 5 5 6 6 6 6 6 6 6 7 7 7 8 8 8 8 8 8 8 8 8 8 8 8 8 8 8 7 7 7 7 7 7 7 7 7 7 7 6 6 6 6 5 5 5
4 4 4 4 4 4 4 4 4 4 4 4 4 5 5 5 5 5 4 4 4 3 3 3 4 4 4 5 5 5 5 5 5 5 5 5 5 5 5 5 5 5 5 5 5 6 6 6 6 7 6 6 6 5 5 5 5 5 5 5 6 6 6 6 6 6 7 7 7 8 8 8 8 8 8 8 8 8 8 8 8 8 8 8 8 8 8 7 7 7 7 7 7 7 6 6 6 6 6 5 5 5 4
4 4 4 4 4 4 4 4 4 4 4 4 5 5 5 5 5 4 4 4 4 3 3 3 4 4 4 5 5 5 5 5 5 5 5 5 5 5 5 5 5 5 5 5 6 6 6 6 7 6 6 6 6 5 5 5 5 5 5 5 6 6 6 6 6 6 7 7 7 8 8 8 8 8 8 8 8 8 8 9 9 9 8 8 8 8 8 8 7 7 7 7 6 6 6 6 6 6 5 5 5 5 4
4 4 4 4 5 5 5 5 4 4 4 5 5 5 5 5 5 4 4 4 3 3 3 3 3 4 4 4 5 5 5 5 5 5 5 5 5 5 5 5 5 5 5 5 6 6 6 6 6 6 6 6 6 5 5 5 5 5 5 5 5 6 6 6 6 6 7 7 7 8 8 8 8 8 8 8 9 9 9 9 9 9 9 9 9 9 8 8 8 7 7 7 6 6 6 6 6 5 5 5 5 5 4
4 4 5 5 5 5 5 5 5 4 4 5 5 5 5 5 5 4 4 4 3 3 3 3 3 4 4 4 5 5 5 5 5 5 5 5 5 5 5 5 5 5 5 6 6 6 6 6 6 6 6 6 5 5 5 5 5 5 5 5 6 6 6 6 6 7 7 7 7 7 7 8 8 8 8 8 8 9 9 9 9 9 10 9 9 9 9 9 8 8 7 7 7 6 6 6 6 6 5 5 5 5 5
4 5 5 5 5 5 5 5 4 4 4 5 5 5 5 5 5 4 4 4 3 3 3 3 3 4 4 4 5 5 5 5 5 5 5 5 5 5 5 5 5 5 5 6 6 6 6 6 6 6 6 6 6 6 6 6 6 6 6 6 6 6 6 6 6 6 7 7 7 7 7 7 7 8 8 8 8 9 9 9 9 9 10 10 10 9 9 9 9 9 8 8 7 7 7 6 6 6 6 6 5 5 5
5 5 5 5 5 5 5 5 4 4 4 5 5 5 5 5 4 4 4 3 3 3 3 3 3 4 4 4 5 5 5 5 5 5 6 6 6 5 5 5 5 5 5 6 6 6 6 6 6 6 6 6 6 6 6 6 6 5 6 6 6 6 6 6 6 6 7 7 7 7 7 7 7 7 7 8 8 8 8 8 9 9 9 9 9 9 10 10 9 9 9 9 9 8 8 7 7 7 7 6 6 6 6
5 5 6 6 5 5 5 4 4 4 4 5 5 5 5 5 4 4 4 3 3 3 3 3 3 4 4 4 5 5 5 5 5 5 6 5 5 5 5 5 5 5 5 6 6 6 6 6 6 6 6 6 6 6 6 6 6 6 6 6 6 6 6 6 6 6 6 7 7 7 7 7 7 7 7 7 7 7 8 8 8 8 8 9 9 9 9 10 10 10 10 10 9 9 9 9 8 8 8 7 7 7 7
6 6 6 6 5 5 4 4 4 4 4 5 5 5 5 5 4 4 4 3 3 3 3 3 4 4 4 4 5 5 5 5 5 6 6 6 5 5 5 5 5 5 6 6 6 6 6 6 6 6 6 6 6 6 6 6 6 6 6 6 6 6 6 6 6 6 6 6 6 6 6 6 6 6 7 7 7 7 7 7 7 8 8 8 9 9 9 10 10 10 10 10 10 10 10 9 9 9 9 8 8 8 7
6 6 6 5 5 5 4 4 4 4 4 5 5 5 4 4 4 4 4 3 3 3 3 4 4 4 4 5 5 5 5 5 6 6 6 6 5 5 6 5 5 6 6 6 6 6 6 6 6 6 6 6 6 6 6 6 6 6 6 6 6 6 6 6 6 6 6 6 6 6 6 6 6 6 6 6 6 6 6 7 7 7 7 8 8 9 9 10 10 10 10 10 10 10 10 10 10 10 9 9 9 8 8
6 6 5 5 5 4 4 4 4 4 5 5 5 5 4 4 4 4 4 4 4 4 4 4 4 4 4 5 5 5 5 6 6 6 6 6 6 6 6 5 6 6 6 6 6 6 6 6 6 6 6 6 6 6 6 6 6 6 6 6 6 6 6 6 6 6 6 6 6 6 6 6 6 6 6 6 6 6 6 6 6 6 7 7 8 8 9 9 10 10 11 11 11 11 11 11 10 10 10 9 9 9 8
6 5 5 5 4 4 4 4 5 5 5 5 5 5 4 4 4 4 4 4 4 4 4 4 4 4 5 5 5 5 6 6 6 6 6 6 6 6 5 6 6 6 6 6 6 6 6 6 6 6 6 6 6 6 6 6 6 6 6 6 6 6 6 6 6 6 6 6 6 6 5 5 5 5 5 5 5 5 5 5 5 6 6 6 7 8 8 9 10 10 11 11 11 11 11 11 10 10 10 9 9 8 8
5 5 4 4 4 4 4 5 5 5 5 5 5 5 5 4 4 4 4 4 4 4 4 4 4 5 5 5 5 5 6 6 6 6 6 6 6 5 5 6 6 6 6 6 6 6 6 6 6 6 6 6 6 6 6 6 6 6 6 6 6 6 6 6 6 6 6 6 6 5 5 5 5 5 5 5 5 5 5 5 5 5 5 6 6 7 7 8 9 10 10 11 11 11 11 10 10 9 9 8 8 7 7
5 4 4 4 4 4 5 5 5 5 5 5 5 5 5 5 4 4 4 4 4 4 4 4 4 5 5 5 5 6 6 6 6 6 6 6 5 5 5 6 6 6 6 6 6 6 6 6 6 6 6 6 6 6 6 6 6 6 6 6 6 6 6 6 6 6 6 5 5 5 5 4 4 4 4 4 4 4 4 4 4 5 5 5 6 6 7 8 8 9 10 10 10 10 10 10 9 9 8 8 7 7 6
4 4 4 4 4 5 5 5 5 5 5 6 6 5 5 5 5 4 4 4 4 4 4 4 4 5 5 5 6 6 6 6 6 6 6 6 5 5 6 6 6 6 6 6 6 6 6 6 6 6 6 6 6 6 6 6 6 6 6 6 6 6 6 6 6 6 5 5 5 4 4 4 4 4 4 4 4 4 4 4 4 5 5 5 6 6 7 7 8 9 9 10 10 10 10 10 9 9 8 8 7 7 7
4 4 4 5 5 5 5 6 6 6 6 6 6 6 5 5 5 5 4 4 4 4 4 5 5 5 5 6 6 6 6 6 6 6 6 6 6 6 6 6 6 6 7 6 6 6 6 6 6 6 6 6 6 6 6 6 6 6 6 6 6 6 6 6 5 5 5 5 4 4 4 4 4 3 3 3 3 4 4 4 4 5 5 6 6 6 7 7 8 9 10 10 10 11 11 10 10 10 9 9 8 8 7
5 5 5 5 5 6 6 6 6 7 7 6 6 6 6 5 5 5 4 4 4 4 4 5 5 5 5 6 6 6 6 6 6 6 6 6 6 6 6 6 6 6 7 6 6 6 6 6 6 6 6 6 6 6 6 6 6 6 6 6 6 6 6 6 5 5 5 5 4 4 4 3 3 3 3 3 3 4 4 4 5 5 6 6 6 7 7 8 9 9 10 11 11 12 12 11 11 11 10 10 9 9 8
5 5 6 6 6 7 7 7 7 7 7 7 6 6 6 5 5 5 4 4 4 5 5 5 5 5 6 6 6 6 6 6 6 6 6 6 6 6 6 6 6 7 6 6 6 6 6 6 6 6 6 6 6 6 6 6 6 6 6 6 6 6 5 5 5 5 5 4 4 4 3 3 3 3 3 3 4 4 5 5 5 6 6 6 7 7 8 8 9 10 11 12 12 12 12 12 12 11 11 10 9 9 8
6 6 7 7 7 8 8 8 7 7 7 7 6 5 5 5 5 4 5 4 5 5 5 5 5 6 6 6 6 6 6 6 6 6 6 6 6 6 6 6 6 6 6 6 6 6 6 6 6 6 7 7 6 6 6 6 6 6 6 6 6 5 5 5 5 5 4 4 4 3 3 3 3 3 3 4 4 5 5 5 6 6 6 7 7 8 8 9 10 11 12 12 12 12 12 12 11 11 10 9 9 8 7
7 7 7 8 8 8 8 8 7 7 7 6 5 5 5 5 4 4 5 5 5 5 5 5 5 6 6 6 6 6 6 6 6 6 6 6 6 6 6 6 6 6 6 6 6 6 6 6 6 6 7 6 6 6 6 6 6 6 6 6 6 6 5 5 5 4 4 4 3 3 3 3 3 4 4 4 5 5 5 6 6 6 7 7 8 8 9 10 11 11 12 12 12 12 12 11 10 10 9 8 8 7 7
8 8 8 8 8 8 8 7 7 6 6 5 5 5 4 5 5 4 5 5 5 5 6 6 6 6 5 5 6 6 6 6 6 6 6 6 6 6 6 6 6 6 6 6 6 6 6 6 6 6 6 6 6 6 6 6 6 6 6 6 6 6 5 5 4 4 3 3 3 3 3 3 4 4 4 4 5 5 6 6 6 7 7 7 8 9 10 11 11 12 12 12 12 11 11 10 9 9 8 7 7 6 6
8 8 8 8 7 7 7 6 6 6 5 5 5 5 5 5 5 5 5 5 5 5 6 6 6 6 5 5 6 6 6 6 7 7 7 7 6 6 6 6 6 6 6 6 7 7 6 6 6 6 6 6 6 6 6 6 6 6 6 6 6 5 5 4 4 4 3 3 3 3 3 4 4 4 4 5 5 6 6 6 7 7 8 8 9 10 10 11 12 12 12 11 11 10 10 9 8 8 7 7 6 6 6
8 8 7 7 7 6 6 6 6 5 5 5 5 5 5 5 5 6 6 5 5 5 6 6 6 6 6 6 6 6 6 6 6 7 7 7 7 6 6 6 6 6 6 7 7 7 6 6 6 6 6 6 6 6 6 6 6 6 6 6 5 5 4 4 4 4 4 4 4 4 4 4 4 4 5 5 6 6 6 7 7 8 8 9 10 10 11 12 12 12 11 11 10 9 9 8 7 7 7 6 6 6 6
8 7 7 7 7 7 7 6 6 6 6 6 6 6 6 6 6 6 6 6 6 5 5 6 6 6 6 6 6 6 6 6 6 6 6 7 7 6 6 6 6 6 6 7 7 7 7 6 6 6 6 6 6 6 6 6 6 6 6 6 5 5 4 4 4 4 4 4 4 4 4 4 4 5 5 6 6 7 7 7 8 8 9 9 10 11 11 12 11 11 10 10 9 8 8 7 7 6 6 6 6 6 5
7 7 8 8 8 7 7 7 7 7 7 7 7 7 7 7 6 6 6 6 6 6 6 6 6 6 7 6 6 6 6 6 6 6 7 7 6 6 6 6 6 6 6 6 6 6 7 6 6 6 6 6 6 6 6 6 6 6 6 6 5 5 4 4 4 4 4 4 4 4 4 4 5 5 6 6 7 7 7 8 8 9 9 10 11 11 11 11 11 10 10 9 8 8 7 7 6 6 6 6 6 6 6
7 7 8 8 8 8 8 8 8 8 8 8 7 7 7 7 7 6 6 6 6 6 6 6 6 6 7 7 7 7 6 7 7 7 7 7 7 6 6 6 6 6 6 6 6 6 6 6 6 6 6 6 6 6 6 6 6 6 6 5 5 5 5 5 5 5 5 4 4 4 5 5 5 6 6 7 7 7 8 8 9 9 10 10 11 11 11 11 10 10 9 8 8 7 7 6 6 6 6 6 6 6 6
7 7 7 8 8 8 9 9 9 9 8 8 8 7 7 7 7 7 6 6 6 6 6 6 6 6 6 7 7 7 7 7 7 7 6 7 7 7 6 5 6 6 7 7 7 6 6 6 6 6 6 6 6 6 6 6 6 6 6 6 6 6 5 5 5 5 5 5 5 5 5 5 6 6 7 7 7 8 8 8 9 10 10 11 11 11 10 10 9 9 8 8 7 7 6 6 6 6 6 6 6 6 6
6 6 7 7 8 8 8 8 9 8 8 8 8 7 7 7 7 7 7 6 6 6 6 6 6 6 6 7 7 7 7 7 7 7 7 6 7 7 7 7 6 6 7 7 6 6 6 6 6 6 6 6 6 6 6 6 6 6 6 6 6 6 6 6 5 5 5 5 5 5 6 6 6 7 7 8 8 8 8 9 9 10 10 11 10 10 10 9 9 8 8 7 7 6 6 6 6 6 6 6 6 6 7
5 5 6 6 6 7 7 7 8 8 8 8 7 7 7 7 7 7 7 7 7 6 6 7 7 7 6 7 7 7 7 7 7 7 7 8 7 6 6 7 7 7 7 7 6 6 6 6 7 7 6 6 6 6 6 6 7 6 6 6 6 6 5 6 5 5 5 5 6 6 6 7 7 7 8 8 8 8 9 9 10 10 10 10 10 10 10 9 9 8 7 7 7 6 6 6 6 6 6 6 7 7 7
4 4 5 5 5 6 6 6 7 7 7 7 7 7 7 7 7 7 7 7 7 7 6 7 7 8 7 7 7 7 7 7 7 6 7 8 8 7 5 5 5 6 7 7 8 8 7 7 7 7 7 7 6 7 7 7 7 7 6 6 6 6 6 5 5 6 6 6 6 7 7 7 7 8 8 8 8 9 9 10 10 10 10 10 10 10 9 9 8 8 7 7 6 6 6 6 6 6 6 7 7 7 7
4 4 4 4 4 5 5 5 6 6 6 6 6 6 7 7 7 7 7 7 7 7 7 7 7 7 8 7 7 7 7 6 7 7 7 6 7 7 6 5 5 7 7 6 7 8 9 9 9 8 7 7 7 7 7 7 7 7 7 7 6 6 6 6 6 6 6 6 7 7 7 7 8 8 8 8 9 9 10 10 10 11 11 10 10 10 9 9 8 7 7 6 6 6 6 6 6 7 7 7 7 7 6
3 3 3 3 4 4 4 4 5 5 6 6 6 6 7 7 7 7 8 8 7 7 8 7 7 7 7 7 7 7 7 6 6 7 7 5 5 5 7 8 8 8 5 4 4 6 10 10 9 9 10 8 7 6 6 6 7 7 7 7 7 6 6 6 6 6 7 7 7 7 7 8 8 8 8 9 9 9 10 10 11 11 10 10 10 9 9 8 7 7 6 6 6 6 6 6 7 7 7 7 7 6 5
3 3 3 3 3 3 3 3 4 4 5 6 6 6 6 7 7 8 8 8 8 8 8 8 7 7 7 7 7 7 7 7 6 6 7 7 5 5 6 9 8 7 6 5 5 5 9 8 8 8 9 9 8 6 6 7 7 7 7 7 7 7 7 7 7 7 7 7 7 7 7 7 8 8 8 9 9 10 10 10 11 11 10 10 9 9 8 7 7 6 6 6 6 6 6 7 7 7 7 7 6 5 3
3 2 2 2 2 3 3 3 3 4 5 6 6 7 7 8 8 8 8 8 8 8 8 8 8 7 7 7 7 7 6 7 6 6 6 7 7 7 5 5 5 6 7 11 11 9 6 7 7 7 8 9 8 7 7 7 7 7 8 7 7 7 7 7 7 7 7 7 7 7 7 7 8 8 9 9 10 10 10 11 11 10 10 9 9 8 7 7 6 6 6 6 6 6 7 7 7 7 7 6 4 3 2
2 2 2 2 2 2 2 3 3 4 4 5 6 7 8 8 8 8 9 8 8 8 8 7 7 7 7 7 6 6 6 6 7 7 6 6 8 8 7 6 5 5 5 8 10 10 8 5 5 7 10 9 8 8 8 7 7 6 7 8 8 7 7 7 7 7 7 7 7 7 8 8 8 9 9 10 10 10 11 11 10 10 9 9 8 7 6 6 6 6 6 6 6 7 7 7 7 7 6 4 3 2 1
3 2 2 2 2 2 2 3 3 3 4 5 6 7 8 8 8 9 9 8 8 8 8 7 7 7 7 7 6 6 6 6 7 7 7 6 6 7 9 9 8 7 6 5 4 5 7 6 7 8 7 9 9 9 7 8 8 7 6 7 7 8 8 7 7 7 7 7 7 7 8 8 9 9 10 10 10 11 11 10 10 9 9 8 7 6 6 6 6 6 6 6 7 7 7 7 6 6 4 3 2 1 1
3 2 2 2 2 2 2 2 3 3 4 5 6 7 8 8 8 9 8 8 8 8 7 7 7 7 7 7 6 6 6 6 6 6 7 7 7 7 8 8 8 9 9 8 6 5 2 6 10 9 2 5 9 11 8 8 8 8 7 7 7 7 7 7 7 7 7 7 7 8 8 9 10 10 10 10 11 10 10 10 9 9 8 7 7 6 6 6 6 6 6 7 7 7 7 6 5 4 3 2 1 1 1
3 3 2 2 2 2 2 2 3 3 4 5 6 7 8 8 9 9 8 8 8 7 7 7 7 6 6 6 6 7 7 6 6 6 6 7 8 8 8 7 7 8 9 9 9 8 5 7 8 7 5 4 6 8 11 10 8 7 7 7 7 7 7 7 7 7 7 7 8 8 9 9 10 10 10 10 10 10 10 9 9 8 7 7 6 6 6 6 6 6 7 7 7 7 6 5 4 3 2 1 1 1 2
4 3 3 2 2 2 2 2 3 4 4 5 6 7 8 8 9 9 8 8 7 7 7 6 6 6 6 6 6 6 6 6 6 6 6 6 7 8 8 7 7 7 7 7 8 8 9 9 7 6 8 6 4 4 7 9 9 8 7 7 7 7 8 8 7 7 7 8 8 9 9 9 10 10 10 10 10 10 9 9 8 7 7 6 6 6 6 6 6 6 7 7 7 6 5 4 3 2 1 1 1 2 2
4 4 3 3 3 2 2 3 3 4 4 5 6 7 7 8 8 8 8 8 7 7 7 6 6 6 6 6 6 6 6 6 6 7 7 7 7 7 8 8 8 7 7 7 7 7 8 9 8 8 8 8 6 5 5 6 7 8 9 8 7 7 7 8 8 8 8 8 9 9 9 9 10 10 10 10 10 9 8 8 7 7 6 6 6 6 6 6 6 7 7 7 6 6 4 3 2 2 1 1 1 2 2
Height
5873 5873 5873 5873 5872 5872 5872 5872 5871 5871 5871 5870 5870 5870 5869 5869 5869 5868 5868 5867 5867 5866 5865 5865 5864 5864 5863 5862 5862 5861 5860 5859 5859 5858 5858 5857 5856 5855 5855 5854 5853 5853 5852 5851 5850 5849 5848 5848 5847 5846 5845 5844 5843 5842 5841 5840 5839 5839 5838 5837 5836 5835 5834 5832 5831 5830 5829 5827 5826 5824 5823 5821 5820 5819 5817 5815 5814 5812 5811 5809 5807 5806 5804 5802 5801 5799 5797 5795 5794 5792 5790 5789 5787 5786 5784 5783 5781 5780 5779 5777 5776 5774 5773
5873 5873 5873 5872 5872 5872 5872 5871 5871 5871 5870 5870 5870 5869 5869 5869 5868 5868 5867 5867 5866 5866 5865 5864 5864 5863 5863 5862 5861 5860 5860 5859 5858 5858 5857 5856 5855 5855 5854 5853 5853 5852 5851 5850 5849 5849 5848 5847 5846 5845 5844 5843 5842 5841 5840 5839 5839 5838 5836 5835 5834 5833 5832 5831 5829 5828 5827 5825 5824 5823 5821 5819 5818 5817 5815 5814 5812 5810 5809 5807 5805 5804 5802 5800 5799 5797 5795 5793 5792 5790 5789 5787 5785 5784 5782 5781 5779 5778 5777 5775 5774 5773 5771
5873 5873 5873 5873 5872 5872 5871 5871 5871 5871 5870 5870 5869 5869 5869 5868 5868 5867 5867 5866 5866 5865 5864 5864 5863 5863 5862 5861 5861 5860 5859 5859 5858 5857 5856 5855 5855 5854 5853 5853 5852 5851 5850 5849 5849 5848 5847 5846 5845 5844 5843 5842 5841 5840 5839 5838 5837 5836 5835 5834 5833 5832 5831 5829 5828 5826 5825 5824 5822 5821 5819 5818 5816 5814 5813 5811 5810 5808 5806 5805 5803 5801 5800 5798 5796 5794 5793 5791 5790 5788 5786 5785 5784 5782 5780 5779 5778 5776 5775 5774 5772 5771 5769
5872 5873 5873 5873 5872 5871 5871 5871 5870 5870 5870 5869 5869 5869 5868 5868 5867 5867 5866 5866 5865 5865 5864 5864 5863 5862 5861 5861 5860 5859 5859 5858 5857 5856 5856 5855 5854 5853 5853 5852 5851 5850 5849 5849 5848 5847 5846 5845 5844 5843 5842 5841 5840 5839 5838 5837 5836 5835 5834 5833 5832 5830 5829 5828 5826 5825 5823 5822 5820 5819 5817 5816 5814 5813 5811 5809 5808 5806 5804 5803 5801 5799 5798 5796 5794 5793 5791 5789 5788 5786 5784 5783 5782 5780 5779 5777 5776 5774 5773 5772 5770 5769 5768
5872 5872 5872 5872 5872 5872 5872 5871 5871 5870 5869 5869 5869 5868 5868 5867 5867 5866 5866 5865 5865 5864 5864 5863 5862 5862 5861 5860 5859 5859 5858 5857 5856 5856 5855 5854 5853 5853 5852 5851 5850 5849 5849 5848 5847 5846 5845 5844 5843 5842 5841 5840 5839 5838 5837 5836 5835 5834 5833 5832 5830 5829 5827 5826 5824 5823 5822 5820 5819 5817 5815 5814 5812 5811 5809 5808 5806 5804 5802 5801 5799 5797 5796 5794 5792 5791 5789 5787 5786 5784 5783 5781 5780 5778 5777 5775 5774 5773 5771 5770 5769 5767 5766
5872 5872 5872 5871 5872 5872 5871 5870 5870 5869 5869 5869 5868 5868 5867 5867 5866 5866 5865 5865 5864 5864 5863 5862 5862 5861 5860 5859 5859 5858 5857 5856 5856 5855 5854 5854 5853 5852 5851 5850 5849 5849 5848 5847 5846 5845 5844 5843 5842 5841 5840 5839 5838 5837 5836 5835 5834 5833 5831 5830 5829 5827 5826 5824 5823 5822 5820 5819 5817 5815 5814 5812 5810 5809 5807 5805 5804 5802 5800 5799 5797 5795 5794 5792 5790 5789 5787 5785 5784 5782 5781 5779 5778 5777 5775 5774 5772 5771 5769 5768 5767 5766 5764
5871 5871 5871 5871 5871 5870 5870 5870 5869 5869 5869 5868 5868 5867 5867 5866 5866 5865 5865 5864 5864 5863 5862 5862 5861 5860 5860 5859 5858 5857 5857 5856 5855 5854 5854 5853 5852 5851 5850 5849 5849 5848 5847 5846 5845 5844 5843 5842 5841 5840 5839 5838 5837 5836 5835 5834 5833 5831 5830 5829 5827 5826 5824 5823 5821 5820 5818 5817 5815 5814 5812 5810 5809 5807 5805 5804 5802 5800 5799 5797 5795 5793 5792 5790 5788 5787 5785 5784 5782 5781 5779 5778 5776 5775 5774 5772 5771 5769 5768 5767 5765 5764 5763
5871 5871 5871 5870 5870 5870 5870 5869 5869 5869 5868 5868 5867 5867 5866 5866 5865 5865 5864 5864 5863 5863 5862 5861 5860 5860 5859 5858 5858 5857 5856 5855 5854 5854 5853 5852 5851 5850 5849 5849 5848 5847 5846 5845 5844 5843 5842 5841 5840 5839 5838 5837 5836 5835 5834 5833 5831 5830 5829 5827 5826 5824 5823 5821 5820 5818 5817 5815 5814 5812 5810 5808 5807 5805 5803 5802 5800 5798 5796 5795 5793 5791 5790 5788 5787 5785 5784 5782 5780 5779 5778 5776 5775 5773 5772 5771 5769 5768 5766 5765 5764 5763 5761
5871 5870 5870 5870 5870 5869 5869 5869 5869 5868 5868 5867 5867 5866 5866 5865 5865 5864 5864 5863 5863 5862 5861 5860 5860 5859 5859 5858 5857 5856 5855 5854 5854 5853 5852 5851 5850 5849 5849 5848 5847 5846 5845 5844 5843 5842 5841 5840 5839 5838 5837 5836 5834 5833 5832 5831 5830 5829 5827 5826 5824 5823 5821 5820 5818 5817 5815 5813 5812 5810 5808 5806 5805 5803 5801 5800 5798 5796 5794 5793 5791 5789 5788 5786 5785 5783 5782 5780 5779 5777 5776 5774 5773 5772 5770 5769 5768 5766 5765 5764 5762 5761 5760
5870 5870 5870 5870 5869 5869 5869 5869 5868 5868 5867 5867 5866 5866 5865 5865 5864 5864 5863 5863 5862 5861 5860 5860 5859 5859 5858 5857 5856 5855 5854 5854 5853 5852 5851 5850 5849 5849 5848 5847 5846 5844 5844 5843 5842 5840 5839 5839 5838 5836 5835 5834 5833 5832 5831 5830 5829 5827 5826 5824 5823 5821 5819 5818 5816 5815 5813 5811 5810 5808 5806 5804 5803 5801 5799 5798 5796 5794 5793 5791 5789 5788 5786 5784 5783 5781 5780 5779 5777 5776 5774 5773 5772 5770 5769 5768 5766 5765 5763 5762 5761 5759 5758
5870 5870 5869 5869 5869 5869 5869 5868 5868 5867 5867 5866 5866 5865 5865 5864 5864 5863 5862 5862 5861 5860 5860 5859 5859 5858 5857 5856 5855 5855 5854 5853 5852 5851 5850 5849 5849 5848 5846 5845 5844 5844 5842 5841 5840 5839 5838 5837 5836 5835 5834 5833 5832 5831 5829 5828 5827 5826 5824 5823 5821 5819 5818 5816 5815 5813 5811 5809 5808 5806 5804 5803 5801 5799 5798 5796 5794 5793 5791 5789 5787 5786 5784 5783 5781 5780 5778 5777 5775 5774 5773 5771 5770 5769 5767 5766 5764 5763 5762 5760 5759 5758 5757
5869 5869 5869 5869 5869 5868 5868 5868 5867 5867 5866 5866 5865 5865 5864 5864 5863 5862 5862 5861 5860 5860 5859 5858 5858 5857 5856 5855 5854 5854 5853 5852 5851 5850 5849 5848 5847 5846 5845 5844 5843 5842 5841 5840 5839 5838 5837 5836 5835 5834 5833 5832 5830 5829 5828 5827 5825 5824 5823 5821 5819 5818 5816 5814 5813 5811 5809 5808 5806 5804 5803 5801 5799 5798 5796 5794 5792 5791 5789 5787 5785 5784 5782 5781 5779 5778 5777 5775 5774 5772 5771 5769 5768 5767 5765 5764 5763 5762 5760 5759 5758 5756 5755
5869 5869 5869 5869 5868 5868 5867 5867 5866 5866 5866 5865 5864 5864 5864 5863 5862 5862 5861 5860 5859 5859 5858 5858 5857 5856 5855 5854 5854 5853 5852 5851 5850 5849 5848 5847 5846 5845 5844 5843 5842 5841 5840 5839 5838 5837 5836 5835 5834 5833 5831 5830 5829 5828 5827 5825 5824 5823 5821 5819 5818 5816 5814 5813 5811 5809 5808 5806 5804 5803 5801 5799 5798 5796 5794 5793 5791 5789 5787 5785 5784 5782 5781 5779 5778 5776 5775 5774 5772 5771 5769 5768 5766 5765 5764 5763 5761 5760 5759 5757 5756 5755 5753
5869 5869 5868 5868 5868 5867 5867 5866 5866 5865 5865 5864 5864 5863 5863 5862 5861 5861 5860 5859 5859 5858 5857 5857 5856 5855 5854 5854 5853 5852 5851 5850 5849 5848 5847 5846 5845 5844 5843 5842 5841 5839 5839 5838 5836 5835 5834 5833 5832 5831 5830 5829 5828 5826 5825 5824 5822 5821 5819 5818 5816 5814 5813 5811 5809 5808 5806 5804 5803 5801 5799 5798 5796 5794 5793 5791 5789 5787 5785 5784 5782 5780 5779 5777 5776 5774 5773 5772 5770 5769 5767 5766 5765 5763 5762 5761 5759 5758 5757 5755 5754 5753 5752
5868 5868 5868 5867 5867 5866 5866 5866 5865 5865 5864 5864 5863 5863 5862 5861 5861 5860 5859 5859 5858 5857 5856 5856 5855 5854 5854 5853 5852 5851 5850 5849 5848 5847 5846 5845 5844 5843 5842 5841 5839 5838 5837 5836 5835 5834 5833 5832 5831 5830 5829 5828 5826 5825 5824 5822 5821 5819 5818 5816 5814 5813 5811 5809 5808 5806 5804 5803 5801 5799 5798 5796 5794 5793 5791 5789 5787 5786 5784 5782 5780 5779 5777 5776 5774 5773 5771 5770 5769 5767 5766 5764 5763 5762 5760 5759 5758 5756 5755 5754 5753 5751 5750
5868 5867 5867 5867 5866 5866 5865 5865 5864 5864 5864 5863 5863 5862 5861 5861 5860 5859 5859 5858 5857 5856 5856 5855 5854 5853 5853 5852 5851 5850 5849 5848 5847 5846 5845 5844 5843 5842 5840 5839 5838 5837 5836 5835 5834 5833 5832 5831 5829 5828 5827 5826 5825 5824 5822 5821 5819 5818 5816 5814 5813 5811 5809 5808 5806 5805 5803 5801 5800 5798 5796 5794 5793 5791 5789 5788 5786 5784 5782 5781 5779 5777 5776 5774 5773 5771 5769 5768 5767 5765 5764 5763 5761 5760 5759 5757 5756 5754 5753 5752 5751 5749 5748
5867 5867 5866 5866 5866 5865 5865 5864 5864 5864 5863 5862 5862 5861 5860 5860 5859 5859 5858 5857 5856 5855 5855 5854 5853 5852 5851 5851 5850 5849 5848 5847 5846 5845 5844 5843 5842 5840 5839 5838 5837 5836 5835 5834 5833 5832 5830 5829 5828 5827 5826 5824 5823 5822 5820 5819 5817 5816 5814 5813 5811 5809 5808 5806 5805 5803 5802 5800 5798 5796 5794 5793 5791 5789 5788 5786 5784 5782 5781 5779 5777 5776 5774 5772 5771 5769 5768 5766 5765 5764 5762 5761 5759 5758 5757 5755 5754 5753 5751 5750 5749 5748 5746
5867 5866 5866 5865 5865 5864 5864 5864 5863 5863 5862 5862 5861 5860 5860 5859 5858 5858 5857 5856 5855 5854 5854 5853 5852 5851 5850 5849 5849 5848 5847 5846 5845 5844 5843 5842 5840 5839 5838 5837 5836 5835 5834 5833 5831 5830 5829 5828 5827 5825 5824 5823 5822 5820 5819 5817 5816 5814 5813 5811 5809 5808 5806 5805 5803 5802 5800 5798 5796 5795 5793 5791 5789 5788 5786 5784 5782 5781 5779 5777 5776 5774 5772 5771 5769 5768 5766 5764 5763 5762 5760 5759 5758 5756 5755 5754 5752 5751 5749 5748 5747 5745 5744
5866 5865 5865 5865 5864 5864 5864 5863 5862 5862 5861 5861 5860 5859 5859 5858 5857 5857 5856 5855 5854 5854 5853 5852 5851 5850 5849 5849 5848 5847 5846 5845 5844 5843 5842 5840 5839 5838 5837 5836 5835 5834 5833 5831 5830 5829 5828 5827 5825 5824 5823 5821 5820 5819 5817 5816 5814 5813 5811 5809 5808 5806 5805 5803 5802 5800 5798 5796 5795 5793 5791 5789 5788 5786 5784 5782 5781 5779 5777 5775 5774 5772 5770 5769 5767 5766 5764 5763 5761 5760 5759 5757 5756 5754 5753 5752 5750 5749 5748 5746 5745 5743 5742
5865 5865 5864 5864 5864 5863 5863 5862 5862 5861 5860 5860 5859 5859 5858 5857 5856 5856 5855 5854 5854 5853 5852 5851 5850 5849 5849 5848 5847 5846 5845 5844 5843 5842 5841 5839 5838 5837 5836 5835 5834 5832 5831 5830 5829 5828 5826 5825 5824 5823 5821 5820 5819 5817 5815 5814 5812 5811 5809 5808 5806 5805 5803 5802 5800 5798 5796 5795 5793 5791 5789 5788 5786 5784 5782 5781 5779 5777 5775 5774 5772 5770 5769 5767 5766 5764 5763 5761 5760 5758 5757 5755 5754 5753 5751 5750 5748 5747 5745 5744 5742 5741 5739
5864 5864 5864 5863 5863 5862 5862 5861 5861 5860 5860 5859 5858 5858 5857 5856 5855 5855 5854 5853 5853 5852 5851 5850 5849 5849 5848 5847 5846 5845 5844 5843 5842 5841 5839 5839 5837 5836 5835 5834 5832 5831 5830 5829 5827 5826 5825 5824 5823 5821 5820 5818 5817 5815 5814 5812 5811 5809 5808 5806 5805 5803 5802 5800 5798 5796 5795 5793 5791 5789 5788 5786 5784 5782 5781 5779 5777 5775 5774 5772 5770 5769 5767 5765 5764 5762 5761 5759 5758 5756 5755 5754 5752 5750 5749 5748 5746 5744 5743 5741 5740 5739 5737
5864 5864 5863 5863 5862 5862 5861 5861 5860 5859 5859 5858 5858 5857 5856 5855 5855 5854 5853 5852 5852 5851 5850 5849 5849 5848 5847 5846 5845 5844 5843 5842 5840 5839 5838 5837 5836 5835 5834 5832 5831 5830 5829 5827 5826 5825 5824 5822 5821 5820 5818 5817 5815 5814 5812 5811 5809 5808 5806 5805 5803 5802 5800 5798 5796 5795 5793 5791 5789 5788 5786 5784 5782 5781 5779 5777 5775 5774 5772 5770 5769 5767 5765 5764 5762 5761 5759 5758 5756 5754 5753 5751 5750 5749 5747 5745 5744 5742 5741 5739 5738 5736 5734
5863 5863 5862 5862 5861 5861 5860 5860 5859 5859 5858 5857 5857 5856 5855 5854 5854 5853 5852 5851 5851 5850 5849 5848 5847 5846 5845 5844 5844 5843 5841 5840 5839 5838 5837 5836 5835 5834 5832 5831 5830 5829 5827 5826 5825 5824 5822 5821 5819 5818 5817 5815 5814 5812 5811 5809 5808 5806 5805 5803 5802 5800 5798 5797 5795 5793 5791 5789 5788 5786 5784 5783 5781 5779 5777 5775 5774 5772 5770 5769 5767 5765 5764 5762 5760 5759 5757 5756 5754 5753 5751 5749 5748 5746 5744 5743 5741 5740 5738 5737 5735 5733 5732
5862 5862 5861 5861 5860 5860 5859 5859 5858 5858 5857 5856 5855 5855 5854 5853 5853 5852 5851 5850 5849 5849 5848 5847 5846 5845 5844 5843 5842 5841 5840 5839 5838 5837 5836 5835 5834 5832 5831 5830 5829 5827 5826 5825 5824 5822 5821 5819 5818 5817 5815 5814 5812 5811 5809 5808 5806 5805 5803 5802 5800 5798 5797 5795 5793 5791 5790 5788 5786 5784 5783 5781 5779 5777 5775 5774 5772 5770 5769 5767 5765 5764 5762 5760 5759 5757 5755 5754 5752 5750 5749 5747 5745 5744 5742 5740 5739 5737 5736 5734 5732 5730 5729
5861 5861 5860 5860 5859 5859 5859 5858 5857 5857 5856 5855 5854 5854 5853 5852 5851 5851 5850 5849 5849 5848 5847 5846 5845 5844 5843 5842 5841 5840 5839 5838 5837 5836 5834 5834 5832 5831 5829 5829 5827 5826 5825 5824 5822 5821 5819 5818 5817 5815 5814 5812 5810 5809 5808 5806 5805 5803 5802 5800 5798 5797 5795 5793 5792 5790 5788 5786 5784 5783 5781 5779 5777 5775 5774 5772 5770 5769 5767 5765 5764 5762 5760 5759 5757 5755 5754 5752 5750 5748 5747 5745 5743 5741 5740 5738 5736 5735 5733 5731 5729 5728 5726
5860 5860 5859 5859 5859 5858 5858 5857 5856 5856 5855 5854 5854 5853 5852 5851 5850 5849 5849 5848 5847 5846 5846 5845 5844 5843 5842 5841 5840 5839 5838 5837 5835 5834 5833 5832 5831 5829 5828 5827 5826 5824 5823 5822 5821 5819 5818 5817 5815 5814 5812 5810 5809 5808 5806 5804 5803 5802 5800 5798 5797 5795 5793 5792 5790 5788 5786 5784 5783 5781 5779 5777 5775 5774 5772 5770 5769 5767 5765 5764 5762 5760 5758 5757 5755 5753 5751 5750 5748 5746 5744 5742 5741 5739 5737 5735 5734 5732 5730 5728 5726 5725 5723
5859 5859 5859 5858 5858 5857 5857 5856 5855 5855 5854 5853 5852 5852 5851 5850 5849 5849 5848 5847 5846 5845 5844 5844 5843 5842 5841 5840 5839 5838 5836 5835 5834 5833 5832 5830 5829 5828 5827 5826 5824 5823 5822 5821 5819 5818 5817 5815 5814 5812 5810 5809 5808 5806 5805 5803 5801 5800 5798 5797 5795 5794 5792 5790 5788 5786 5785 5783 5781 5779 5777 5776 5774 5772 5770 5769 5767 5765 5763 5762 5760 5758 5756 5754 5753 5751 5749 5747 5745 5744 5742 5740 5738 5736 5734 5733 5731 5729 5727 5725 5723 5722 5720
5859 5858 5858 5857 5857 5856 5856 5855 5854 5854 5853 5852 5851 5850 5850 5849 5848 5847 5846 5846 5845 5844 5843 5842 5841 5840 5839 5838 5837 5836 5835 5834 5833 5832 5830 5829 5828 5827 5825 5824 5823 5822 5821 5819 5818 5817 5815 5814 5812 5810 5809 5807 5806 5804 5803 5802 5800 5798 5797 5795 5794 5792 5790 5788 5786 5785 5783 5781 5779 5778 5776 5774 5772 5770 5769 5767 5765 5763 5761 5760 5758 5756 5754 5752 5750 5749 5747 5745 5743 5741 5739 5737 5735 5734 5731 5730 5728 5726 5724 5722 5720 5719 5717
5858 5857 5857 5856 5856 5855 5855 5854 5854 5853 5852 5851 5850 5849 5849 5848 5847 5846 5845 5844 5844 5843 5842 5841 5840 5839 5838 5837 5836 5835 5834 5833 5831 5830 5829 5828 5827 5825 5824 5823 5822 5821 5819 5818 5817 5815 5814 5812 5810 5809 5807 5806 5804 5803 5802 5800 5799 5797 5795 5794 5792 5790 5789 5787 5785 5783 5781 5779 5778 5776 5774 5772 5770 5769 5767 5765 5763 5761 5759 5758 5756 5754 5752 5750 5748 5746 5744 5742 5740 5738 5736 5734 5732 5730 5729 5727 5725 5723 5721 5719 5717 5715 5714
5857 5856 5856 5856 5855 5854 5854 5853 5853 5852 5851 5850 5849 5849 5848 5847 5846 5845 5844 5844 5843 5842 5841 5840 5839 5838 5837 5835 5834 5833 5832 5831 5830 5829 5828 5826 5825 5824 5823 5822 5820 5819 5818 5817 5815 5814 5812 5810 5809 5807 5806 5804 5803 5801 5800 5799 5797 5795 5794 5792 5790 5789 5787 5785 5783 5781 5779 5778 5776 5774 5772 5770 5769 5767 5765 5763 5761 5759 5757 5755 5753 5751 5749 5748 5745 5744 5742 5740 5738 5736 5734 5732 5729 5728 5726 5724 5722 5720 5718 5716 5714 5712 5710
5856 5855 5855 5854 5854 5854 5853 5852 5851 5851 5850 5849 5848 5847 5846 5846 5845 5844 5843 5842 5841 5840 5840 5839 5838 5837 5835 5834 5833 5832 5831 5830 5829 5828 5826 5825 5824 5823 5821 5820 5819 5818 5817 5815 5814 5812 5811 5809 5807 5806 5804 5803 5801 5800 5798 5797 5795 5794 5792 5790 5789 5787 5785 5784 5782 5780 5778 5776 5774 5772 5770 5769 5767 5765 5763 5761 5759 5757 5755 5753 5751 5749 5747 5745 5743 5741 5739 5737 5735 5733 5731 5729 5727 5725 5723 5721 5719 5717 5715 5713 5711 5709 5707
5855 5854 5854 5854 5853 5853 5852 5851 5850 5849 5849 5848 5847 5846 5845 5844 5844 5843 5842 5841 5840 5839 5839 5837 5836 5835 5834 5833 5832 5831 5829 5828 5827 5826 5825 5824 5822 5821 5820 5819 5818 5816 5815 5814 5812 5811 5809 5807 5806 5804 5803 5801 5800 5798 5797 5795 5794 5792 5790 5789 5787 5785 5784 5782 5780 5778 5776 5774 5772 5770 5769 5767 5765 5763 5761 5759 5757 5755 5753 5751 5749 5747 5745 5743 5741 5739 5737 5735 5733 5731 5729 5726 5724 5722 5720 5718 5716 5714 5712 5710 5708 5706 5704
5854 5854 5853 5853 5852 5851 5851 5850 5849 5849 5848 5847 5846 5845 5844 5843 5842 5842 5841 5840 5839 5838 5837 5836 5835 5834 5833 5832 5830 5829 5828 5827 5826 5825 5824 5822 5821 5820 5819 5817 5816 5815 5814 5812 5811 5809 5807 5806 5804 5803 5801 5799 5798 5796 5795 5794 5792 5791 5789 5787 5785 5784 5782 5780 5778 5776 5774 5772 5770 5769 5767 5765 5763 5761 5759 5757 5755 5753 5751 5749 5747 5745 5743 5741 5739 5737 5734 5732 5730 5728 5726 5724 5721 5719 5717 5715 5713 5711 5709 5707 5704 5703 5700
5853 5852 5852 5851 5851 5850 5850 5849 5848 5847 5846 5846 5845 5844 5843 5842 5841 5840 5839 5839 5838 5837 5836 5834 5834 5832 5831 5830 5829 5828 5827 5826 5824 5824 5822 5821 5820 5819 5817 5816 5815 5814 5812 5811 5809 5807 5806 5804 5803 5801 5799 5798 5796 5795 5793 5792 5790 5789 5787 5786 5784 5782 5780 5779 5777 5774 5773 5771 5769 5767 5765 5763 5761 5759 5757 5755 5753 5751 5749 5747 5745 5743 5741 5739 5737 5734 5732 5730 5728 5725 5723 5721 5719 5716 5714 5712 5710 5708 5705 5703 5701 5699 5697
5852 5851 5851 5850 5850 5849 5849 5848 5847 5846 5845 5844 5844 5843 5842 5841 5840 5839 5838 5837 5836 5835 5834 5833 5832 5831 5830 5829 5828 5827 5825 5824 5823 5822 5821 5819 5818 5817 5816 5814 5813 5812 5810 5809 5807 5806 5804 5803 5801 5799 5798 5796 5795 5793 5792 5790 5789 5787 5786 5784 5782 5780 5779 5777 5775 5773 5771 5769 5767 5765 5763 5761 5759 5757 5755 5753 5751 5749 5747 5745 5743 5741 5739 5736 5734 5732 5729 5727 5725 5722 5720 5718 5715 5713 5711 5709 5706 5704 5702 5700 5698 5695 5693
5851 5850 5850 5849 5849 5848 5847 5847 5846 5845 5844 5843 5842 5841 5840 5839 5839 5838 5837 5836 5835 5834 5833 5832 5831 5830 5829 5828 5826 5825 5824 5823 5822 5820 5819 5818 5817 5815 5814 5813 5812 5810 5809 5807 5806 5804 5803 5801 5799 5798 5796 5795 5793 5792 5790 5789 5787 5785 5784 5782 5780 5779 5777 5775 5773 5771 5769 5767 5765 5763 5761 5759 5757 5755 5753 5751 5749 5747 5745 5743 5740 5738 5736 5734 5731 5729 5726 5724 5722 5719 5717 5714 5712 5710 5708 5705 5703 5701 5698 5696 5694 5692 5690
5850 5849 5849 5848 5848 5847 5846 5846 5845 5844 5843 5842 5841 5840 5839 5838 5837 5836 5835 5835 5834 5833 5832 5831 5829 5829 5827 5826 5825 5824 5823 5822 5820 5819 5818 5816 5815 5814 5813 5811 5810 5809 5807 5806 5804 5803 5801 5799 5798 5796 5795 5793 5792 5790 5789 5787 5785 5784 5782 5780 5779 5777 5775 5773 5771 5769 5767 5765 5763 5761 5759 5757 5755 5753 5751 5749 5747 5745 5743 5740 5738 5736 5733 5731 5729 5726 5724 5721 5718 5716 5714 5711 5709 5707 5704 5702 5699 5697 5695 5693 5691 5689 5686
5849 5848 5848 5847 5846 5846 5845 5844 5844 5843 5842 5841 5840 5839 5838 5837 5836 5835 5834 5834 5833 5831 5830 5829 5828 5827 5826 5825 5824 5823 5821 5820 5819 5818 5816 5815 5814 5812 5811 5810 5809 5807 5805 5804 5802 5801 5799 5798 5796 5794 5793 5791 5790 5788 5787 5785 5784 5782 5780 5779 5777 5775 5773 5771 5769 5768 5765 5763 5761 5759 5757 5755 5753 5751 5749 5747 5745 5743 5740 5738 5735 5733 5730 5728 5725 5723 5720 5718 5715 5713 5710 5708 5706 5704 5701 5699 5697 5694 5692 5690 5688 5685 5683
5848 5847 5847 5846 5845 5845 5844 5843 5842 5842 5841 5840 5839 5838 5837 5836 5835 5834 5833 5832 5831 5830 5829 5828 5827 5826 5824 5823 5822 5821 5820 5819 5817 5816 5815 5814 5812 5811 5809 5808 5807 5805 5804 5802 5801 5799 5798 5796 5794 5793 5791 5790 5788 5787 5785 5783 5782 5780 5779 5777 5775 5773 5771 5769 5768 5765 5764 5761 5759 5757 5755 5753 5751 5749 5747 5744 5742 5740 5737 5735 5732 5730 5727 5725 5722 5720 5717 5715 5712 5710 5707 5705 5703 5700 5698 5696 5694 5691 5689 5687 5684 5682 5680
5847 5846 5845 5845 5844 5844 5843 5842 5841 5840 5839 5838 5837 5836 5835 5834 5834 5833 5832 5831 5830 5829 5828 5827 5826 5824 5823 5822 5821 5819 5818 5817 5816 5814 5813 5812 5811 5809 5808 5807 5805 5804 5802 5801 5799 5798 5796 5794 5793 5791 5789 5788 5786 5785 5783 5782 5780 5778 5777 5775 5773 5771 5769 5767 5765 5764 5762 5759 5758 5755 5753 5751 5749 5746 5744 5742 5739 5737 5734 5732 5729 5727 5724 5722 5719 5717 5714 5712 5709 5707 5704 5702 5700 5697 5695 5693 5690 5688 5686 5683 5681 5679 5676
5845 5845 5844 5844 5843 5842 5842 5841 5840 5839 5838 5837 5836 5835 5834 5833 5833 5832 5831 5830 5829 5828 5826 5825 5824 5823 5822 5821 5819 5818 5817 5815 5814 5813 5812 5810 5809 5808 5807 5805 5804 5802 5801 5799 5798 5796 5794 5793 5791 5789 5788 5786 5784 5783 5781 5780 5778 5776 5775 5773 5771 5769 5767 5765 5764 5761 5759 5758 5755 5754 5751 5749 5746 5744 5741 5739 5736 5734 5731 5729 5726 5724 5721 5719 5717 5714 5712 5709 5706 5704 5702 5699 5697 5694 5692 5689 5687 5685 5682 5680 5677 5675 5673
5844 5844 5843 5843 5842 5841 5841 5840 5839 5838 5837 5836 5835 5834 5833 5832 5831 5830 5829 5829 5828 5826 5825 5824 5823 5822 5821 5819 5818 5817 5815 5814 5813 5811 5810 5809 5808 5806 5805 5804 5802 5801 5799 5798 5796 5794 5793 5791 5789 5788 5786 5784 5783 5781 5779 5778 5776 5774 5773 5771 5769 5767 5765 5764 5761 5759 5757 5755 5753 5751 5749 5746 5743 5741 5738 5736 5733 5731 5728 5726 5724 5721 5719 5716 5714 5711 5709 5706 5704 5701 5699 5696 5694 5691 5689 5686 5684 5681 5679 5676 5674 5671 5669
5844 5843 5842 5842 5841 5840 5839 5839 5838 5837 5836 5835 5834 5833 5832 5831 5830 5829 5828 5827 5826 5825 5824 5823 5821 5820 5819 5818 5816 5815 5814 5813 5811 5810 5809 5808 5806 5805 5803 5802 5800 5799 5797 5796 5794 5793 5791 5789 5788 5786 5784 5783 5781 5779 5778 5776 5774 5773 5771 5769 5768 5766 5764 5762 5759 5757 5755 5753 5750 5748 5746 5743 5740 5738 5735 5733 5730 5728 5725 5723 5721 5718 5716 5714 5711 5709 5706 5704 5701 5698 5696 5693 5691 5688 5685 5683 5680 5678 5675 5673 5670 5668 5665
5843 5842 5841 5841 5840 5839 5839 5838 5837 5836 5835 5834 5833 5832 5831 5830 5829 5828 5827 5826 5825 5824 5823 5821 5820 5819 5818 5816 5815 5814 5813 5811 5810 5809 5807 5806 5804 5803 5802 5800 5799 5797 5795 5794 5792 5791 5789 5788 5786 5784 5782 5781 5779 5777 5776 5774 5773 5771 5769 5768 5766 5764 5762 5760 5757 5755 5753 5750 5748 5745 5743 5740 5738 5735 5733 5730 5728 5725 5723 5720 5718 5716 5713 5711 5708 5706 5703 5701 5698 5695 5693 5690 5688 5685 5682 5679 5677 5674 5672 5669 5666 5664 5661
5842 5841 5840 5839 5839 5838 5837 5836 5835 5834 5834 5833 5831 5830 5829 5829 5828 5827 5825 5824 5823 5822 5821 5820 5819 5817 5816 5815 5814 5812 5811 5810 5809 5807 5806 5804 5803 5801 5800 5798 5797 5795 5794 5792 5790 5789 5787 5786 5784 5782 5780 5779 5777 5775 5774 5772 5771 5769 5768 5766 5764 5762 5760 5757 5755 5753 5750 5747 5745 5742 5740 5737 5735 5733 5730 5728 5725 5723 5720 5718 5715 5713 5710 5708 5705 5703 5700 5698 5695 5692 5689 5687 5684 5682 5679 5676 5674 5671 5668 5665 5663 5660 5657
5841 5840 5839 5839 5838 5837 5836 5835 5834 5833 5832 5831 5830 5829 5828 5827 5826 5825 5824 5823 5822 5821 5820 5819 5817 5816 5814 5813 5812 5811 5809 5808 5807 5806 5804 5803 5801 5799 5798 5797 5795 5794 5792 5790 5789 5787 5785 5784 5782 5780 5779 5777 5775 5774 5772 5770 5769 5767 5766 5764 5762 5760 5757 5755 5752 5750 5747 5745 5742 5740 5737 5735 5733 5730 5728 5726 5724 5721 5718 5716 5713 5710 5708 5705 5702 5700 5697 5694 5692 5689 5686 5684 5681 5679 5676 5673 5670 5667 5665 5662 5659 5656 5653
5839 5839 5838 5838 5837 5836 5835 5834 5833 5832 5831 5830 5829 5828 5827 5826 5825 5824 5823 5822 5821 5819 5818 5817 5816 5815 5813 5812 5810 5809 5808 5807 5805 5804 5803 5801 5799 5798 5796 5794 5793 5792 5790 5789 5787 5785 5784 5782 5780 5779 5777 5775 5773 5772 5770 5769 5767 5765 5764 5762 5759 5757 5755 5753 5750 5747 5745 5742 5740 5737 5735 5733 5730 5728 5726 5724 5721 5719 5716 5713 5711 5708 5705 5702 5699 5697 5694 5691 5689 5686 5683 5681 5678 5675 5672 5669 5667 5664 5661 5658 5655 5653 5649
5839 5838 5837 5836 5835 5835 5834 5833 5832 5831 5830 5829 5828 5827 5826 5825 5824 5823 5822 5820 5819 5818 5817 5816 5815 5814 5812 5811 5809 5808 5806 5805 5804 5802 5801 5799 5798 5796 5794 5793 5791 5790 5788 5787 5785 5784 5782 5780 5779 5777 5775 5773 5771 5769 5768 5766 5764 5763 5761 5759 5757 5755 5753 5750 5748 5745 5743 5740 5738 5735 5733 5731 5729 5726 5724 5721 5719 5716 5714 5711 5708 5705 5703 5700 5697 5694 5691 5688 5686 5683 5680 5678 5675 5672 5669 5666 5664 5661 5658 5655 5652 5649 5646
5837 5837 5836 5835 5834 5834 5833 5832 5831 5830 5829 5828 5827 5826 5825 5824 5823 5821 5820 5819 5818 5817 5816 5814 5813 5812 5811 5810 5808 5807 5805 5804 5802 5800 5799 5798 5796 5794 5793 5791 5790 5788 5786 5785 5783 5781 5780 5778 5777 5775 5773 5771 5769 5767 5765 5764 5762 5760 5758 5756 5754 5752 5750 5748 5745 5743 5741 5738 5736 5733 5731 5729 5726 5724 5722 5719 5716 5714 5711 5709 5706 5703 5700 5697 5694 5692 5689 5686 5683 5680 5677 5674 5672 5669 5666 5663 5660 5657 5654 5651 5648 5645 5642
5836 5835 5834 5834 5833 5832 5831 5830 5829 5829 5828 5826 5825 5824 5823 5822 5821 5820 5819 5818 5817 5816 5814 5813 5812 5810 5809 5808 5807 5805 5804 5802 5800 5799 5797 5796 5794 5792 5790 5789 5787 5786 5785 5783 5781 5779 5778 5776 5774 5773 5771 5769 5767 5765 5763 5761 5759 5757 5756 5754 5752 5750 5748 5746 5744 5741 5739 5736 5734 5731 5729 5726 5724 5722 5719 5716 5714 5711 5709 5706 5703 5700 5698 5695 5692 5689 5686 5683 5680 5678 5674 5672 5669 5666 5663 5660 5657 5654 5651 5648 5644 5641 5638
5835 5834 5833 5833 5832 5831 5830 5829 5828 5827 5826 5825 5824 5823 5822 5821 5820 5819 5818 5817 5815 5814 5813 5812 5811 5809 5808 5807 5805 5804 5802 5800 5799 5797 5795 5794 5792 5790 5788 5786 5785 5784 5782 5781 5780 5778 5775 5774 5772 5770 5768 5766 5764 5763 5761 5759 5757 5755 5753 5751 5749 5748 5745 5743 5741 5739 5737 5734 5732 5729 5727 5724 5722 5719 5717 5714 5711 5709 5706 5703 5700 5698 5695 5692 5689 5686 5684 5681 5678 5675 5672 5669 5666 5663 5659 5657 5654 5650 5647 5644 5641 5637 5634
5834 5833 5832 5831 5831 5830 5829 5828 5827 5826 5825 5824 5823 5822 5821 5820 5819 5818 5816 5815 5814 5813 5812 5811 5809 5808 5806 5805 5804 5802 5800 5799 5797 5796 5794 5792 5790 5789 5787 5785 5783 5781 5779 5778 5777 5776 5774 5772 5770 5768 5766 5764 5762 5760 5759 5757 5755 5753 5751 5749 5747 5745 5743 5741 5739 5736 5734 5732 5729 5727 5725 5722 5719 5717 5714 5711 5709 5706 5703 5700 5698 5695 5692 5689 5686 5683 5680 5678 5675 5672 5669 5666 5662 5659 5656 5653 5650 5647 5643 5640 5637 5634 5630
5832 5832 5831 5830 5829 5829 5828 5827 5826 5825 5824 5823 5822 5821 5820 5819 5818 5816 5815 5814 5813 5812 5810 5809 5808 5807 5805 5804 5802 5800 5799 5797 5796 5794 5792 5790 5788 5786 5784 5783 5781 5779 5778 5776 5774 5773 5772 5771 5769 5767 5765 5763 5760 5758 5756 5754 5753 5751 5749 5747 5745 5743 5741 5739 5736 5734 5732 5729 5727 5724 5722 5720 5717 5714 5711 5709 5706 5703 5700 5697 5694 5692 5689 5686 5683 5680 5678 5675 5672 5669 5666 5662 5659 5656 5653 5649 5646 5643 5639 5636 5633 5629 5626
5831 5830 5830 5829 5828 5827 5826 5825 5824 5823 5822 5821 5820 5819 5819 5817 5816 5815 5814 5813 5811 5810 5809 5807 5806 5805 5803 5802 5800 5799 5797 5795 5794 5792 5790 5789 5787 5784 5782 5781 5780 5778 5776 5774 5773 5771 5769 5768 5767 5765 5764 5761 5759 5756 5755 5753 5751 5749 5748 5746 5744 5741 5739 5737 5734 5732 5729 5727 5724 5722 5719 5717 5714 5712 5709 5706 5703 5700 5697 5694 5691 5689 5686 5683 5680 5677 5674 5672 5669 5665 5662 5659 5656 5653 5649 5646 5643 5639 5636 5633 5629 5625 5622
5830 5829 5828 5828 5827 5826 5825 5824 5823 5822 5821 5820 5819 5818 5817 5816 5815 5814 5813 5811 5810 5809 5807 5806 5804 5803 5801 5799 5798 5797 5795 5794 5792 5790 5788 5786 5785 5783 5781 5779 5777 5776 5774 5773 5771 5769 5768 5765 5764 5763 5762 5760 5757 5754 5753 5751 5749 5747 5745 5743 5741 5739 5737 5734 5732 5729 5727 5724 5722 5719 5717 5714 5711 5709 5706 5703 5700 5697 5694 5691 5689 5685 5683 5680 5677 5674 5671 5668 5665 5662 5659 5656 5652 5649 5646 5643 5639 5636 5632 5629 5625 5621 5617
5829 5828 5827 5826 5825 5824 5824 5823 5822 5821 5819 5819 5818 5817 5815 5814 5813 5812 5811 5810 5808 5807 5806 5804 5803 5801 5800 5798 5796 5795 5794 5792 5790 5788 5786 5784 5782 5781 5779 5777 5775 5774 5772 5770 5769 5767 5765 5764 5762 5759 5758 5758 5756 5754 5750 5749 5747 5745 5743 5741 5739 5737 5735 5732 5729 5727 5724 5722 5719 5717 5714 5712 5709 5706 5703 5700 5697 5694 5692 5689 5686 5683 5680 5677 5674 5671 5668 5665 5662 5659 5656 5653 5649 5646 5643 5639 5636 5632 5628 5624 5621 5617 5613
5827 5826 5826 5825 5824 5823 5822 5821 5820 5819 5818 5817 5816 5815 5814 5813 5812 5811 5809 5808 5807 5805 5804 5803 5801 5799 5798 5796 5795 5793 5791 5790 5788 5786 5784 5783 5780 5779 5777 5775 5774 5772 5770 5769 5767 5765 5763 5761 5760 5758 5755 5754 5754 5753 5750 5746 5744 5743 5741 5739 5737 5735 5732 5729 5727 5724 5722 5719 5716 5714 5711 5709 5706 5703 5700 5697 5694 5692 5689 5686 5683 5680 5677 5674 5671 5668 5665 5662 5659 5656 5653 5649 5646 5643 5639 5635 5632 5628 5624 5620 5617 5612 5608
5826 5825 5824 5823 5822 5821 5821 5820 5819 5818 5817 5816 5815 5814 5813 5811 5810 5809 5808 5807 5805 5804 5802 5801 5799 5798 5796 5794 5793 5791 5789 5788 5786 5784 5783 5781 5779 5777 5775 5773 5772 5770 5768 5766 5765 5763 5761 5759 5757 5756 5754 5751 5750 5749 5749 5746 5743 5740 5738 5736 5735 5733 5730 5727 5724 5722 5719 5716 5714 5711 5709 5706 5703 5700 5697 5694 5692 5689 5686 5683 5680 5678 5674 5671 5669 5665 5662 5659 5656 5653 5649 5646 5643 5639 5635 5632 5628 5624 5620 5616 5612 5608 5604
5824 5824 5823 5822 5821 5820 5819 5818 5817 5816 5815 5814 5814 5812 5811 5810 5809 5807 5806 5805 5804 5802 5800 5799 5798 5796 5794 5793 5791 5789 5788 5786 5785 5783 5781 5779 5777 5776 5774 5772 5770 5768 5766 5764 5763 5761 5759 5757 5755 5753 5752 5749 5747 5745 5744 5744 5742 5739 5736 5734 5731 5729 5728 5725 5722 5719 5716 5714 5711 5708 5705 5703 5700 5698 5695 5692 5689 5686 5683 5680 5678 5675 5672 5669 5666 5663 5659 5656 5653 5650 5646 5643 5639 5636 5632 5628 5624 5620 5616 5612 5608 5603 5599
5823 5822 5821 5820 5819 5819 5818 5817 5816 5815 5814 5813 5812 5811 5810 5809 5807 5806 5804 5803 5802 5800 5799 5797 5796 5794 5793 5791 5789 5788 5786 5785 5783 5781 5779 5777 5775 5774 5772 5770 5769 5767 5765 5763 5761 5759 5757 5755 5753 5751 5749 5748 5746 5743 5741 5739 5739 5737 5735 5733 5729 5727 5724 5722 5719 5717 5714 5711 5708 5705 5703 5700 5698 5695 5692 5689 5686 5684 5681 5678 5675 5672 5669 5666 5663 5659 5656 5653 5650 5647 5643 5640 5636 5633 5629 5625 5621 5617 5612 5608 5604 5599 5594
5822 5821 5820 5819 5818 5817 5816 5815 5814 5813 5812 5811 5810 5809 5808 5807 5805 5804 5803 5801 5800 5799 5797 5796 5794 5793 5791 5789 5788 5786 5785 5783 5781 5779 5778 5776 5774 5772 5770 5769 5767 5765 5763 5761 5759 5757 5755 5753 5751 5749 5748 5746 5744 5742 5739 5737 5735 5733 5732 5730 5728 5726 5723 5720 5717 5714 5711 5709 5706 5703 5700 5698 5695 5692 5689 5687 5684 5681 5678 5675 5672 5669 5666 5663 5660 5657 5654 5650 5647 5644 5640 5637 5633 5629 5625 5621 5617 5613 5608 5604 5599 5594 5589